STSAT-2C (39068 NORAD) Tracking and Keplerian Element Data

This shows tracking and keplerian element data for the satellite.

Feedback or suggestion? Click here.




ElementValue
Catalog39068
NameSTSAT-2C
Epoch Orbit31572
Epoch Day345.78443968
Epoch Year2018
RAAN109.389
Inclination80.1844
Eccentricity0.0208539
Argument of Perigee74.5039
Mean Anonmoly287.9127
Mean Motion15.55511314
Decay Rate0.00039862
L11 39068U 13003A 18345.78443968 .00039862 -35601-6 21004-3 0 9993
L22 39068 80.1844 109.3890 0208539 74.5039 287.9127 15.55511314315723

Live tracking and technical data element details for STSAT-2C (NORAD 39068). STSAT-2C can be tracked NOW for your location showing map with azimuth and elevation plus other details from your city location.

Track the satellite on the map from your city or location and see movement details for azimuth, elevation, latitude, longitude, range, height, and movement on the map or in text.







IsCatalogInMostPopularTable: catalog: 39068, numindb: 90
Update: records affected: 1



GetName: 39068 STSAT-2C

Hit Count: updated at: Thu, 13 Dec 2018 03:26:36 GMT